This demonstration page uses our WeatherBlox Daily Observations layout. Learn more.

38.88101, -77.10428

Hourly Observations for September 13, 2015

Temp ( °F °C ) Dew Point ( °F °C ) Humidity (%) Winds ( mph kmh ) Pressure ( in mb ) Visibility ( mi km ) Precip ( " mm )
12:52 am 00:52 Cloudy 69 20.6 57 13.9 66 66 WNW 12 19 29.73 1007 10 16.0934 0 0
1:52 am 01:52 Cloudy 67 19.4 54 12.2 63 63 WNW 12 19 29.73 1007 10 16.0934 0 0
2:52 am 02:52 Cloudy 65 18.3 54 12.2 68 68 NW 8 13 29.73 1007 10 16.0934 0 0
3:52 am 03:52 Cloudy 65 18.3 53 11.7 66 66 WNW 8 13 29.75 1007 10 16.0934 0 0
4:52 am 04:52 Mostly Cloudy 65 18.3 52 11.1 63 63 WNW 8 13 29.75 1007 10 16.0934 0 0
5:52 am 05:52 Cloudy with Light Rain 64 17.8 53 11.7 68 68 NW 9 15 29.76 1008 10 16.0934 0 0.0254
6:52 am 06:52 Mostly Cloudy 64 17.8 53 11.7 68 68 NW 13 20 29.76 1008 10 16.0934 0 0.0254
7:52 am 07:52 Mostly Cloudy 64 17.8 53 11.7 68 68 NW 12 19 29.79 1009 10 16.0934 0 0.0254
8:52 am 08:52 Partly Cloudy 66 18.9 53 11.7 63 63 NW 7 11 29.8 1009 10 16.0934 0 0
9:52 am 09:52 Mostly Cloudy 66 18.9 51 10.6 59 59 NW 14 22 29.82 1010 10 16.0934 0 0
10:52 am 10:52 Mostly Cloudy 69 20.6 52 11.1 55 55 NNW 14 22 29.83 1010 10 16.0934 0 0
11:52 am 11:52 Mostly Cloudy 69 20.6 51 10.6 53 53 NNW 13 20 29.84 1011 10 16.0934 0 0.0254
12:52 pm 12:52 Mostly Cloudy 73 22.8 51 10.6 46 46 NW 9 15 29.84 1011 10 16.0934 0 0
1:52 pm 13:52 Mostly Cloudy 74 23.3 50 10 43 43 NNW 18 30 29.84 1011 10 16.0934 0 0
2:52 pm 14:52 Partly Cloudy 74 23.3 47 8.3 38 38 WNW 16 26 29.86 1011 10 16.0934 0 0
3:52 pm 15:52 Mostly Cloudy 71 21.7 48 8.9 44 44 NW 10 17 29.86 1011 10 16.0934 0 0
4:52 pm 16:52 Partly Cloudy 71 21.7 45 7.2 39 39 WNW 16 26 29.87 1012 10 16.0934 0 0
5:52 pm 17:52 Partly Cloudy 71 21.7 44 6.7 38 38 WNW 15 24 29.88 1012 10 16.0934 0 0
6:52 pm 18:52 Partly Cloudy 70 21.1 45 7.2 41 41 WNW 14 22 29.9 1013 10 16.0934 0 0
7:52 pm 19:52 Mostly Clear 68 20 46 7.8 45 45 WNW 8 13 29.93 1014 10 16.0934 0 0
8:52 pm 20:52 Clear 66 18.9 44 6.7 45 45 WNW 8 13 29.96 1015 10 16.0934 0 0
9:52 pm 21:52 Clear 64 17.8 45 7.2 50 50 NW 8 13 29.99 1016 10 16.0934 0 0
10:52 pm 22:52 Clear 63 17.2 46 7.8 54 54 WSW 5 7 30.01 1016 10 16.0934 0 0
11:52 pm 23:52 Clear 61 16.1 46 7.8 58 58 W 8 13 30.03 1017 10 16.0934 0 0

Powered by AerisWeather